Asheville, NC

12:54 AM EDT on October 17, 2017 (GMT -0400)
Asheville Regional

Weather History for KAVL - October, 2014

Change the Weather History Date:

Saturday, October 4, 2014

  Actual Average Record
Temperature  
Mean Temperature 49 °F 60 °F  
Max Temperature 61 °F 71 °F 86 °F (1986)
Min Temperature 37 °F 49 °F 22 °F (1895)
Degree Days  
Heating Degree Days 16 6  
Month to date heating degree days 16 21  
Since 1 July heating degree days 35 78  
Cooling Degree Days 0 1  
Month to date cooling degree days 4 4  
Year to date cooling degree days 908 856  
Moisture  
Dew Point 37 °F    
Average Humidity 61    
Maximum Humidity 86    
Minimum Humidity 35    
Precipitation  
Precipitation 0.00 in 0.11 in 5.18 in (1964)
Month to date precipitation 0.44 0.43  
Year to date precipitation 37.09 35.85  
Snow  
Snow 0.00 in 0.00 in 0.00 in ()
Month to date snowfall 0.0 0.0  
Since 1 July snowfall 0.0 0.0  
Since 1 September snowfall 0.0 0.0  
Snow Depth 0.00 in    
Sea Level Pressure  
Sea Level Pressure 29.84 in    
Wind  
Wind Speed 10 mph (North)    
Max Wind Speed 24 mph    
Max Gust Speed 31 mph    
Visibility 10 miles    
Events      
T = Trace of Precipitation, MM = Missing Value Source: NWS Daily Summary

Daily Weather History Graph

Daily Weather History Graph

Search for Another Location

Airport or City:

Trip Planner

Search our weather history database for the weather conditions in past years. The results will help you decide how hot, cold, wet, or windy it might be!

Date:

Astronomy

Oct. 04, 2014 Rise Set
Actual Time 7:27 AM EDT 7:09 PM EDT
Civil Twilight 7:01 AM EDT 7:35 PM EDT
Nautical Twilight 6:32 AM EDT 8:04 PM EDT
Astronomical Twilight 6:02 AM EDT 8:34 PM EDT
Moon 4:38 PM EDT (10/4) 3:02 AM EDT (10/4)
Length of Visible Light 12h 33m
Length of Day
11h 42m
Waxing Gibbous, 81% of the Moon is Illuminated
Oct 4
Waxing Gibbous
Oct 8
Full
Oct 15
Last Quarter
Oct 23
New
Oct 30
First Quarter

Hourly Weather History & Observations

Time (EDT) Temp. Windchill Dew Point Humidity Pressure Visibility Wind Dir Wind Speed Gust Speed Precip Events Conditions
12:54 AM 62.1 °F - 55.0 °F 78% 29.80 in 10.0 mi NNW 4.6 mph - N/A   Overcast
1:54 AM 60.1 °F - 52.0 °F 75% 29.79 in 10.0 mi North 8.1 mph - N/A   Clear
2:54 AM 59.0 °F - 46.9 °F 64% 29.79 in 10.0 mi Variable 5.8 mph - N/A   Partly Cloudy
3:54 AM 55.9 °F - 43.0 °F 62% 29.78 in 10.0 mi Calm Calm - N/A   Partly Cloudy
4:54 AM 55.0 °F - 44.1 °F 67% 29.78 in 10.0 mi NNW 8.1 mph - N/A   Mostly Cloudy
5:54 AM 54.0 °F - 48.0 °F 80% 29.80 in 10.0 mi North 15.0 mph - N/A   Scattered Clouds
6:54 AM 53.1 °F - 45.0 °F 74% 29.80 in 10.0 mi North 10.4 mph - N/A   Mostly Cloudy
7:54 AM 48.9 °F - 37.9 °F 66% 29.83 in 10.0 mi North 16.1 mph 24.2 mph N/A   Scattered Clouds
8:54 AM 46.9 °F - 37.0 °F 68% 29.85 in 10.0 mi North 17.3 mph 24.2 mph N/A   Partly Cloudy
9:54 AM 48.0 °F - 36.0 °F 63% 29.86 in 10.0 mi North 15.0 mph 20.7 mph N/A   Clear
10:54 AM 50.0 °F - 28.0 °F 43% 29.87 in 10.0 mi North 21.9 mph 31.1 mph N/A   Clear
11:54 AM 51.1 °F - 28.0 °F 41% 29.85 in 10.0 mi North 17.3 mph 28.8 mph N/A   Clear
12:54 PM 54.0 °F - 30.0 °F 40% 29.82 in 10.0 mi North 19.6 mph 29.9 mph N/A   Clear
1:54 PM 55.0 °F - 28.9 °F 37% 29.81 in 10.0 mi North 15.0 mph 25.3 mph N/A   Clear
2:54 PM 55.9 °F - 28.0 °F 34% 29.80 in 10.0 mi North 12.7 mph 26.5 mph N/A   Clear
3:54 PM 55.0 °F - 28.0 °F 35% 29.81 in 10.0 mi North 13.8 mph 23.0 mph N/A   Clear
4:54 PM 55.0 °F - 28.0 °F 35% 29.82 in 10.0 mi North 17.3 mph 23.0 mph N/A   Clear
5:54 PM 53.1 °F - 28.0 °F 38% 29.84 in 10.0 mi North 15.0 mph 23.0 mph N/A   Clear
6:54 PM 50.0 °F - 28.9 °F 44% 29.86 in 10.0 mi North 10.4 mph - N/A   Clear
7:54 PM 46.4 °F 44.3 °F 33.8 °F 62% 29.90 in 10.0 mi NNW 4.6 mph - N/A   Clear
8:54 PM 45.0 °F 43.5 °F 34.0 °F 65% 29.92 in 10.0 mi NW 3.5 mph - N/A   Scattered Clouds
9:54 PM 42.1 °F 39.2 °F 35.1 °F 76% 29.94 in 10.0 mi NW 4.6 mph - N/A   Clear
10:54 PM 41.0 °F - 37.0 °F 86% 29.94 in 10.0 mi Calm Calm - N/A   Clear
11:54 PM 39.9 °F - 36.0 °F 86% 29.95 in 10.0 mi Calm Calm - N/A   Clear